User: anonymous   Login
Location: eljas
(40.1958°N, 6.8661°W)
Time: 18:01:57
(UTC+01:00)
Language:

Okean O Rocket - Orbit

View from above orbital plane
View from above orbital plane
View from above satellite
View from above satellite

Ground track
Ground track

The orbit data is extracted from the following two-line orbital elements,

1 25861U 99039B   14326.88331337  .00000545  00000-0  82810-4 0  7977
2 25861 097.9728 283.8723 0015107 218.9184 196.8972 14.77881387827302
Epoch (UTC): 22 November 2014 21:11:58
Eccentricity: 0.0015107
inclination: 97.9728°
perigee height: 625 km
apogee height: 646 km
right ascension of ascending node: 283.8723°
argument of perigee: 218.9184°
revolutions per day: 14.77881387
mean anomaly at epoch: 196.8972°
orbit number at epoch: 82730

The dashed part of the orbit path shows where the satellite is in the earth's shadow,  

DLR